This is the latest recevied weather packets stored in our database for station/object OM6ABF-12. If no packets are shown the sender has not sent any weather packets the latest 10 day(s).
| Time | Temp. | Humidity | Pressure | Rain* | Wind** | Luminosity | Snow |
|---|---|---|---|---|---|---|---|
| 1777332385 | 2.78° C | 40% | 1028.5 hPa | - | - | - | - |
| 1777331427 | 2.78° C | 40% | 1028.5 hPa | - | - | - | - |
| 1777330470 | 2.78° C | 39% | 1028.4 hPa | - | - | - | - |
| 1777329512 | 2.78° C | 41% | 1028.5 hPa | - | - | - | - |
| 1777328556 | 2.78° C | 42% | 1028.5 hPa | - | - | - | - |
| 1777327599 | 2.78° C | 43% | 1028.5 hPa | - | - | - | - |
| 1777326641 | 2.78° C | 43% | 1028.6 hPa | - | - | - | - |
| 1777325683 | 2.78° C | 42% | 1028.5 hPa | - | - | - | - |
| 1777324725 | 2.78° C | 43% | 1028.5 hPa | - | - | - | - |
| 1777323769 | 3.33° C | 42% | 1028.6 hPa | - | - | - | - |
| 1777322813 | 3.33° C | 42% | 1028.6 hPa | - | - | - | - |
| 1777321856 | 3.33° C | 41% | 1028.5 hPa | - | - | - | - |
| 1777320900 | 3.33° C | 42% | 1028.6 hPa | - | - | - | - |
| 1777319942 | 3.89° C | 41% | 1028.7 hPa | - | - | - | - |
| 1777318984 | 3.89° C | 41% | 1028.6 hPa | - | - | - | - |
| 1777318028 | 3.89° C | 41% | 1028.6 hPa | - | - | - | - |
| 1777317070 | 3.89° C | 41% | 1028.5 hPa | - | - | - | - |
| 1777316113 | 4.44° C | 41% | 1028.5 hPa | - | - | - | - |
| 1777315155 | 4.44° C | 40% | 1028.5 hPa | - | - | - | - |
| 1777314197 | 4.44° C | 39% | 1028.5 hPa | - | - | - | - |
| 1777313239 | 5° C | 39% | 1028.2 hPa | - | - | - | - |
| 1777312282 | 5° C | 38% | 1028.2 hPa | - | - | - | - |
| 1777311326 | 5.56° C | 37% | 1028.2 hPa | - | - | - | - |
| 1777310368 | 6.11° C | 37% | 1028.2 hPa | - | - | - | - |
| 1777309412 | 7.22° C | 36% | 1028.1 hPa | - | - | - | - |
* Rain since midnight (hover to see other rain measurements)
** Current wind speed in m/s (hover to see current wind gust speed)